Flag for U.S.A. Weather past 2 weeks in Passaic, New Jersey, U.S.A.

Now
92 °F

Sunny.


Feels Like: 94 °F
Forecast: 75 / 91 °F
Wind: 12 mph from Southwest

Location: Teterboro Airport

Current Time: Sep 2, 2014 at 5:58:13 PM

Latest Report: Sep 2, 2014 at 4:51 PM


Visibility: 10 mi

Pressure: 29.80 "Hg

Humidity: 41%

Dew point: 65 °F

Location of PassaicLocation

Historic Weather in Passaic — Graph

°F

Passaic temperature yesterday

Maximum temperature yesterday: 89 °F (at 3:51 PM)
Minimum temperature yesterday: 74 °F (at 4:51 AM)
Average temperature yesterday: 81 °F

Past Weeks' High & Low Weather Summary

 TemperatureHumidityPressure
High93 °F (Sep 2, 2:51 PM)91% (Sep 1, 4:51 AM)30.27 "Hg (Sep 1, 4:51 AM)
Low59 °F (Aug 29, 5:51 AM)32% (Aug 28, 4:51 PM)29.80 "Hg (Sep 2, 4:51 PM)
Average75 °F62%30.02 "Hg
* Reported Aug 18 4:51 PM — Sep 2 4:51 PM, Passaic, Weather by CustomWeather, © 2014

Note: Actual official high and low records may vary slightly from our data, if they occured in-between our weather recording intervals... More about our weather records

Advertising

Passaic weather history for previous 24 hours

 ConditionsComfort  
Time TempWeatherWind HumidityBarometerVisibility
4:51 PM
Sep 2
92 °FSunny.12 mph41%29.80 "Hg10 mi
3:51 PM93 °FSunny.14 mph41%29.80 "Hg10 mi
2:51 PM93 °FSunny.12 mph42%29.82 "Hg10 mi
1:51 PM92 °FScattered clouds.12 mph44%29.84 "Hg10 mi
12:51 PM91 °FSunny.6 mph47%29.86 "Hg10 mi
11:51 AM90 °FScattered clouds.3 mph50%29.88 "Hg10 mi
10:51 AM87 °FSunny.6 mph57%29.90 "Hg10 mi
9:51 AM85 °FSunny.6 mph61%29.91 "Hg10 mi
8:51 AM82 °FSunny.5 mph72%29.91 "Hg10 mi
7:51 AM79 °FFog.7 mph82%29.91 "Hg10 mi
6:51 AM76 °FFog.No wind88%29.89 "Hg10 mi
5:51 AM75 °FClear.No wind88%29.88 "Hg9 mi
4:51 AM74 °FClear.No wind91%29.88 "Hg10 mi
3:51 AM77 °FClear.No wind85%29.90 "Hg10 mi
2:51 AM77 °FClear.3 mph85%29.91 "Hg10 mi
1:51 AM77 °FClear.No wind82%29.91 "Hg10 mi
12:51 AM79 °FClear.No wind77%29.92 "Hg10 mi
11:51 PM
Sep 1
79 °FClear.No wind77%29.93 "Hg10 mi
10:51 PM81 °FPassing clouds.5 mph72%29.93 "Hg10 mi
9:51 PM82 °FPassing clouds.6 mph70%29.93 "Hg10 mi
8:51 PM82 °FPassing clouds.6 mph70%29.91 "Hg10 mi
7:51 PM83 °FPassing clouds.7 mph68%29.91 "Hg10 mi
6:51 PM85 °FSunny.7 mph63%29.89 "Hg10 mi
5:51 PM87 °FPartly sunny.9 mph57%29.90 "Hg10 mi
Weather by CustomWeather, © 2014

See weather overviewHow to use our weather pages